Location: Rounton
(54.4000°N, 1.3500°W)
Time: 14:05:32
(UTC+00:00)

Transit 2A Rocket - Pass Details

Date: 06 December 2021
Orbit: 584 x 918 km, 66.7° (Epoch: 21 January)

Event Time Altitude Azimuth Distance (km) Brightness Sun altitude
Rises 15:15:39 0° 317° (NW) 3,568 8.4 2.0°
Reaches altitude 10° 15:18:13 10° 317° (NW) 2,620 7.8 1.8°
Maximum altitude 15:24:21 77° 232° (SW) 926 5.7 1.1°
Drops below altitude 10° 15:30:11 10° 148° (SSE) 2,494 7.8 0.5°
Sets 15:32:35 0° 147° (SSE) 3,385 8.5 0.2°
